Temperature
19 19 19 19 16 14 17 17 20 21 23 24 25 23 21 21 21 21 22 21 21 22 22 22 22 22 21 21 21 20 19 19 18 18 17 17 17 17 17 17 17 17 17 17 17 17 17 17 17
19 19 19 19 15 16 18 19 21 22 24 25 25 24 22 22 22 22 22 22 22 22 22 22 22 22 21 21 21 20 20 19 18 18 17 17 17 17 16 16 16 16 16 16 17 17 17 17 17
19 19 19 15 16 17 20 21 21 22 24 25 25 24 23 22 22 22 22 22 22 22 21 21 21 21 21 21 21 20 20 19 18 18 18 17 17 16 16 16 16 16 16 16 16 16 16 16 17
19 19 18 15 18 18 20 21 21 21 23 24 24 22 22 21 22 22 21 21 22 21 21 21 20 20 20 20 20 20 20 19 19 18 18 17 17 16 16 16 16 15 16 16 16 16 16 16 16
19 19 15 15 17 19 19 20 21 19 20 22 23 21 21 21 22 21 21 21 21 21 20 20 19 19 19 19 19 19 19 19 19 18 18 17 17 16 16 16 15 15 15 16 16 16 16 16 16
19 16 15 16 18 19 19 21 22 20 21 23 22 21 21 21 21 21 20 20 21 20 19 19 19 19 18 18 18 18 18 18 18 18 17 17 17 16 16 15 15 15 15 15 15 16 16 16 16
18 14 16 17 18 18 19 21 21 20 20 21 22 20 20 20 20 20 20 20 20 19 19 18 18 18 17 17 17 17 16 16 17 17 17 17 16 16 16 15 15 14 14 15 15 15 15 16 16
19 14 17 16 18 18 19 21 21 21 19 20 20 18 18 19 20 20 20 19 19 18 18 18 17 17 17 16 16 16 15 15 15 15 16 16 16 16 15 15 15 14 14 14 14 14 15 15 15
19 14 16 18 19 19 19 20 21 20 18 17 15 14 15 18 19 19 19 18 18 17 17 17 17 16 16 16 16 15 15 15 15 15 15 15 15 15 15 15 14 14 14 14 14 14 14 14 15
18 15 18 19 19 19 19 19 19 17 15 14 14 15 17 19 18 18 17 17 16 16 16 16 16 16 16 16 15 15 15 15 15 14 15 15 14 14 14 14 14 14 14 14 14 13 13 14 14
18 17 18 20 20 20 19 17 16 15 11 11 11 12 16 17 16 15 15 15 14 15 15 15 15 15 15 15 14 14 14 14 14 14 14 14 14 14 14 14 14 14 14 14 13 13 14 14 14
18 19 20 20 20 20 18 15 13 12 11 10 10 12 14 13 13 13 13 13 14 14 14 14 14 14 14 14 14 14 14 14 14 14 14 14 14 14 14 14 14 14 13 13 13 13 13 13 13
19 19 20 20 19 18 16 14 13 11 10 10 11 12 11 11 11 11 12 12 13 13 13 13 14 14 14 14 14 14 14 14 14 14 14 14 14 14 14 13 13 13 13 13 13 13 13 13 13
19 19 19 19 19 17 15 14 13 11 10 10 10 10 10 10 10 11 11 11 11 12 12 13 13 13 13 13 13 13 13 13 14 14 13 13 14 14 14 13 13 13 13 13 13 13 12 12 12
19 18 17 18 18 17 15 12 11 10 10 10 9 9 9 9 9 9 9 9 9 10 11 11 12 12 13 13 13 13 13 13 13 13 13 13 13 13 13 13 13 13 12 12 12 12 12 12 12
17 16 16 18 18 17 14 11 11 10 10 9 9 9 9 8 8 8 8 8 8 8 9 9 10 11 11 12 12 12 12 12 12 12 12 12 12 13 13 13 13 12 12 12 12 12 12 12 12
14 15 16 17 17 16 13 10 10 9 9 9 9 9 8 8 8 7 7 7 7 7 7 7 8 8 9 10 11 11 12 12 12 12 12 12 12 12 12 12 12 12 12 12 12 12 12 12 12
15 15 15 16 16 14 11 9 9 9 9 9 9 8 8 7 7 7 7 7 7 6 6 6 6 6 7 7 8 9 10 11 11 11 11 11 11 11 11 11 12 12 11 11 11 11 11 11 11
15 15 15 15 15 13 10 9 8 9 9 8 8 7 7 7 7 7 6 6 6 6 6 5 5 5 5 5 6 6 7 7 8 9 9 9 10 10 10 10 11 11 11 11 11 11 11 11 11
14 14 13 13 14 12 9 8 8 8 8 7 7 6 6 6 6 6 6 5 5 5 5 5 5 4 4 4 4 4 4 5 5 6 7 8 8 9 9 9 9 10 10 10 10 10 10 10 10
13 13 13 13 12 11 8 8 8 7 7 6 6 6 5 5 5 5 5 4 4 4 4 4 4 4 4 4 4 3 4 4 4 5 5 6 7 7 8 9 9 9 10 10 10 10 10 10 10
12 13 13 12 11 10 10 7 7 6 5 5 5 5 5 4 4 4 4 3 3 3 3 3 2 2 3 3 3 2 2 2 3 3 3 4 5 6 7 8 8 9 9 9 9 10 10 10 9
12 11 11 11 10 10 10 8 6 6 5 4 4 4 4 4 3 3 3 2 2 2 2 1 1 1 1 1 1 1 1 1 2 2 2 3 4 5 6 7 7 8 8 9 9 9 9 9 9
10 10 11 9 9 10 11 8 4 4 4 4 4 4 3 3 3 3 2 2 1 1 0 -0 -0 -0 -0 -0 -0 0 0 0 1 1 1 2 2 4 5 5 6 7 7 8 8 9 9 9 8
9 8 9 10 9 10 8 5 4 5 5 4 4 3 3 2 2 1 1 0 0 -0 -1 -1 -1 -1 -1 -1 -1 -1 -0 -0 -0 -0 0 0 1 2 3 4 5 6 6 6 7 8 8 8 8
10 9 9 9 8 7 7 4 4 4 5 4 4 3 2 1 1 0 -1 -1 -1 -2 -2 -2 -2 -2 -2 -2 -1 -1 -1 -1 -1 -1 -1 -1 -1 0 2 3 4 5 5 6 6 6 7 7 7
10 9 9 7 7 6 6 4 3 4 4 3 3 2 1 0 -0 -1 -2 -3 -3 -3 -3 -3 -3 -3 -3 -2 -2 -2 -1 -2 -2 -3 -3 -3 -3 -2 -0 1 3 4 4 5 5 6 6 6 6
10 9 6 7 7 7 6 4 3 2 2 2 2 1 0 -1 -2 -2 -3 -3 -4 -4 -4 -4 -4 -4 -4 -4 -4 -4 -4 -4 -5 -5 -5 -4 -4 -3 -2 -0 2 2 3 4 5 5 5 6 6
9 9 7 6 5 5 5 4 4 3 2 1 1 1 -1 -2 -2 -3 -3 -4 -5 -5 -5 -6 -6 -6 -6 -6 -6 -6 -6 -6 -5 -5 -5 -4 -4 -3 -2 -0 1 2 3 3 4 4 4 4 5
9 7 6 5 4 4 3 3 3 3 2 2 1 -0 -1 -3 -3 -4 -5 -5 -6 -6 -7 -7 -7 -7 -8 -7 -7 -7 -6 -6 -5 -5 -5 -4 -3 -2 -1 -0 1 1 2 2 3 3 3 3 4
Wind_Speed
12 10 3 4 6 5 5 6 4 1 3 3 3 9 9 6 5 4 4 4 9 9 14 17 17 15 14 12 11 11 10 9 8 7 6 6 6 6 5 6 7 8 8 8 7 6 5 4 4
6 5 5 5 5 5 4 5 3 5 2 2 7 9 7 4 2 6 4 8 11 11 15 16 18 16 14 13 11 11 10 10 9 8 6 5 5 5 4 5 7 9 9 9 8 5 4 4 4
6 4 4 5 4 2 1 2 3 6 5 5 6 6 6 3 1 4 5 10 10 9 15 17 18 16 14 12 11 11 10 9 9 8 7 6 6 5 5 5 5 6 7 8 7 5 4 4 4
5 5 5 6 4 4 3 3 7 8 10 9 5 6 5 4 2 3 3 8 10 8 11 14 15 14 12 10 10 10 10 10 9 8 7 7 7 6 5 5 5 5 6 6 6 6 5 5 4
4 5 6 5 6 6 5 4 11 11 7 9 6 6 4 8 3 3 3 6 8 7 7 11 12 12 11 10 9 9 10 10 9 9 8 8 8 7 6 4 5 6 6 7 7 6 6 6 5
5 5 6 5 7 6 6 6 9 8 8 8 5 4 3 8 6 6 7 5 7 8 6 8 10 11 12 11 11 10 10 10 9 9 9 8 9 9 8 7 6 6 7 7 7 6 6 6 6
4 5 3 3 3 7 10 8 9 7 10 10 6 5 5 10 8 5 7 8 7 6 5 2 3 5 8 10 11 11 10 10 10 10 10 9 8 8 9 9 9 8 8 7 6 5 5 6 6
5 5 5 4 4 5 9 7 7 8 8 9 9 8 7 11 11 8 8 10 10 8 6 3 3 3 4 7 9 9 9 10 10 9 9 9 9 9 10 9 9 9 9 9 8 6 5 6 6
5 6 4 4 3 2 6 8 10 7 9 10 11 10 9 14 18 19 15 11 10 10 7 5 4 2 5 8 9 10 11 11 11 10 10 10 10 10 10 11 12 12 11 12 11 10 9 8 8
5 3 1 3 3 2 4 7 7 10 14 10 9 15 17 23 25 24 21 17 15 13 12 9 7 6 6 4 2 5 8 9 11 10 10 11 12 11 11 13 16 15 15 14 13 13 13 11 9
5 5 4 1 4 4 5 7 9 8 12 8 8 12 20 26 25 23 21 16 15 13 16 15 12 10 9 6 3 3 5 8 10 11 11 11 10 9 9 9 11 14 14 11 11 11 10 10 9
4 3 1 1 1 4 6 6 10 13 8 7 10 15 22 25 22 20 19 18 17 18 19 17 14 13 12 11 7 5 4 4 4 7 10 8 4 4 4 4 7 7 8 7 7 5 8 9 11
2 1 2 1 7 10 13 12 13 11 10 10 17 25 24 22 18 15 16 18 19 20 20 18 18 18 14 11 10 9 7 6 7 7 6 4 3 4 4 3 4 6 7 5 4 4 7 7 6
2 2 4 1 8 7 13 9 9 9 8 15 22 22 19 19 17 19 20 21 19 17 18 18 19 18 16 14 13 10 11 12 11 9 9 7 3 2 3 4 4 4 5 6 4 6 6 5 5
4 5 7 4 7 6 11 11 8 7 11 19 16 15 15 14 15 15 13 13 13 13 15 18 16 17 17 16 14 13 15 16 12 12 14 11 7 3 3 4 5 5 6 6 5 5 4 5 5
5 6 5 5 4 6 10 8 7 5 14 15 11 11 12 11 11 10 10 10 11 12 14 15 17 16 15 12 13 14 16 16 14 17 17 16 12 7 3 4 5 5 5 4 5 5 4 5 5
8 5 5 6 7 5 8 8 5 5 15 13 10 10 10 11 12 11 10 10 10 10 10 12 13 13 12 10 10 12 14 14 16 18 17 20 19 12 4 4 5 5 5 6 6 5 5 5 5
4 3 4 4 7 7 9 9 7 7 12 10 9 10 12 14 13 11 11 10 10 10 10 10 11 11 10 8 7 8 10 11 14 14 18 23 21 19 8 6 6 5 5 6 5 6 5 5 5
1 2 3 2 5 6 12 11 7 6 9 10 10 11 13 13 13 13 12 12 12 13 13 14 15 14 12 9 8 8 9 10 10 10 18 21 22 22 14 9 7 6 6 7 6 5 5 5 3
5 3 4 5 7 6 11 9 6 7 8 9 10 11 11 13 15 15 15 14 15 16 16 17 17 16 14 9 6 4 4 5 6 6 12 19 21 21 15 15 10 7 6 7 6 5 4 4 4
5 2 2 5 7 5 9 5 5 7 10 12 10 10 11 14 14 15 14 13 14 15 16 17 17 18 16 13 7 7 5 5 7 10 13 15 21 20 17 16 14 9 7 7 7 6 7 5 4
4 5 6 6 3 3 6 5 5 5 10 11 11 11 12 12 12 13 13 14 13 13 13 14 16 17 16 13 9 9 9 7 7 8 10 15 18 18 19 17 16 11 7 7 7 7 5 6 4
7 9 7 4 5 2 1 5 2 3 7 9 9 10 12 12 13 13 13 12 12 12 12 13 15 14 14 13 11 10 9 8 9 11 13 14 15 16 18 18 16 11 8 8 8 6 6 5 5
7 7 5 5 5 1 2 5 2 4 4 6 8 10 12 13 13 12 12 13 12 12 13 14 15 13 13 13 13 12 12 14 16 16 15 15 14 15 18 19 16 12 7 6 7 7 8 6 5
10 8 7 8 6 4 4 8 4 4 4 6 8 9 11 12 12 11 13 15 15 15 15 15 15 14 14 14 15 14 14 14 15 16 16 17 15 15 18 19 17 13 7 5 5 6 7 7 6
6 6 4 2 5 6 4 6 6 4 3 5 6 8 10 11 11 11 13 15 16 17 17 16 16 15 17 17 17 15 15 14 14 16 17 17 15 16 19 20 18 14 7 5 5 4 5 5 6
4 3 2 4 4 5 3 5 6 3 6 8 9 9 10 10 10 11 13 14 15 16 16 17 18 19 20 19 18 16 17 17 18 18 18 16 17 18 19 19 19 13 6 5 4 4 4 6 5
2 2 5 1 4 6 4 3 3 8 9 9 10 11 11 10 11 12 14 17 17 17 17 18 19 21 20 20 18 17 18 18 19 18 20 20 20 20 20 19 16 12 6 6 5 5 4 6 5
5 4 4 1 3 4 5 1 4 5 7 9 10 11 11 12 14 15 16 17 17 18 19 20 20 20 21 21 20 19 18 18 18 18 20 20 19 20 19 17 13 10 7 6 7 6 5 6 5
3 4 4 1 5 3 3 3 6 4 6 7 10 10 9 9 10 11 14 16 17 19 19 20 20 20 21 20 20 19 19 19 18 19 21 21 21 19 17 14 9 5 3 3 5 7 6 6 6
Wind_Direction
340 350 61 56 51 42 344 294 252 136 44 341 52 85 104 107 127 159 220 176 150 151 171 173 172 173 175 177 176 175 175 176 178 181 182 187 199 205 210 215 215 214 208 207 208 206 202 201 190
349 358 49 58 74 51 354 305 11 64 136 36 54 87 92 80 135 144 162 167 158 159 172 173 174 174 176 179 182 184 184 187 190 190 189 194 203 210 222 238 231 219 213 214 216 212 213 216 213
357 37 69 65 75 125 130 294 16 346 351 51 51 68 83 82 124 180 208 163 154 161 174 175 173 175 178 181 186 190 193 198 202 199 200 207 212 226 240 249 233 207 204 207 206 201 208 216 215
43 32 53 59 2 289 275 9 53 31 5 7 51 53 54 336 242 217 208 152 155 171 175 173 172 173 177 184 192 197 201 208 211 212 216 222 218 223 236 234 197 176 180 185 187 192 202 211 218
61 65 48 31 343 312 315 25 65 54 25 360 39 67 38 331 6 82 102 152 159 155 165 169 174 175 178 186 197 205 209 217 216 223 222 230 230 224 226 221 196 184 188 189 189 195 203 211 220
49 59 61 17 343 334 359 9 56 46 13 14 49 79 27 347 11 25 48 90 139 135 147 167 184 184 184 190 199 208 213 221 225 234 230 234 241 228 226 228 224 209 206 204 201 205 213 220 227
85 73 63 357 1 18 352 351 42 38 21 350 355 67 18 352 340 1 65 80 98 100 99 105 213 212 207 207 209 212 216 223 229 239 239 234 247 245 239 236 229 222 216 213 211 218 229 236 241
108 88 38 29 67 9 324 357 15 32 27 9 30 46 7 335 339 2 39 52 59 57 56 20 306 272 256 247 238 228 225 228 233 242 242 231 240 249 249 244 231 224 223 218 211 215 232 242 246
80 66 25 4 57 356 341 18 0 40 60 46 43 36 7 9 27 29 24 27 41 47 43 41 31 331 270 255 243 237 236 237 238 240 236 233 235 239 242 242 234 227 220 215 211 213 223 233 241
80 97 313 338 131 130 26 31 9 45 41 24 25 24 29 40 41 37 30 26 23 19 14 15 20 20 14 1 240 241 253 256 250 242 237 235 234 235 239 243 238 228 215 210 214 221 226 230 236
142 181 225 249 178 113 59 35 18 83 50 31 48 35 40 44 41 37 32 26 20 13 14 8 7 10 16 16 21 326 296 279 263 254 249 247 245 245 249 251 243 228 217 216 228 237 235 232 236
191 247 318 334 14 74 79 85 57 62 96 81 70 60 53 49 43 37 32 27 22 21 15 11 13 12 8 5 357 346 334 316 294 271 263 253 245 243 237 227 222 214 217 221 228 234 240 237 237
159 293 340 14 67 81 89 94 95 80 93 80 67 59 54 52 45 39 37 32 26 22 15 13 17 15 9 7 0 357 349 343 328 312 293 250 224 235 235 224 217 220 223 221 221 225 238 240 240
301 296 317 356 89 84 92 89 84 83 84 70 62 59 55 51 44 40 34 30 24 19 14 11 18 13 12 12 6 358 353 346 341 335 323 311 270 235 245 240 219 214 216 219 220 226 234 242 242
323 358 8 46 116 127 91 56 65 98 84 68 60 58 56 51 45 41 35 30 23 16 15 14 15 13 12 10 5 2 357 354 349 339 330 320 305 278 246 246 241 231 224 224 229 239 244 258 261
33 37 32 357 68 102 92 93 68 72 82 72 58 51 50 44 40 34 30 27 21 18 15 12 13 11 11 9 4 2 358 356 351 343 334 323 308 288 247 239 245 246 239 229 231 235 247 258 263
28 21 9 351 10 56 89 111 77 59 81 73 54 45 42 35 28 20 18 14 9 7 5 4 4 4 3 1 2 1 0 357 351 348 344 335 322 300 261 242 247 249 242 237 237 229 221 242 256
349 345 328 328 3 56 92 107 86 59 76 67 51 41 37 30 16 4 5 3 358 355 354 354 354 354 352 351 354 359 0 357 352 349 346 342 335 321 295 261 254 250 243 242 231 227 219 223 236
283 307 320 304 21 62 106 104 84 66 66 59 46 38 34 24 6 2 359 354 354 355 354 352 349 345 343 343 349 354 355 350 346 343 341 339 337 333 319 291 261 242 234 233 223 212 214 218 204
40 59 6 327 2 67 99 88 72 58 59 54 48 38 26 17 8 3 358 355 355 355 354 352 347 338 332 325 318 317 318 316 320 321 335 337 335 328 325 308 279 244 227 224 214 195 186 203 186
2 125 282 291 340 78 112 88 83 57 55 49 40 34 24 19 5 359 358 355 356 359 356 353 346 342 335 328 322 323 319 319 341 344 340 335 331 326 319 313 293 257 220 211 206 191 177 190 202
304 258 268 265 297 244 170 168 166 91 54 35 23 22 17 9 1 355 356 357 358 355 353 349 346 343 340 338 341 342 347 340 332 330 326 327 325 323 320 315 304 269 227 205 203 192 178 165 179
278 286 286 257 189 253 344 124 164 71 47 19 13 15 12 3 354 350 355 355 352 349 348 344 342 340 342 348 350 347 343 334 329 329 326 324 322 318 317 314 309 283 242 207 192 178 173 169 168
316 343 21 60 84 51 349 131 48 27 48 21 13 11 7 356 349 350 356 354 349 346 346 345 344 344 350 355 354 349 343 338 335 332 327 324 319 315 313 314 308 294 260 221 195 178 171 170 165
16 30 18 6 6 277 58 94 122 102 75 44 18 8 358 347 344 353 358 353 348 346 347 347 347 350 357 357 355 347 345 340 335 332 327 322 317 313 311 313 305 295 264 230 204 173 162 161 162
7 70 86 298 276 293 21 118 147 140 77 34 16 4 352 345 348 359 356 351 347 345 346 347 350 353 355 355 351 346 348 344 337 332 326 318 313 308 306 306 300 290 260 210 194 169 154 145 150
17 44 161 182 277 276 265 140 172 61 22 12 1 353 346 342 347 354 353 350 346 345 347 349 353 355 354 351 347 345 346 341 335 330 324 319 313 308 302 298 294 282 236 177 159 142 133 124 116
39 126 61 61 287 285 289 120 1 358 349 350 344 340 339 344 351 355 357 355 352 352 354 356 359 355 350 348 346 344 342 338 333 328 325 319 313 307 302 294 286 269 218 159 140 123 117 107 102
359 48 59 346 220 247 288 5 45 12 352 341 334 338 345 351 353 355 356 355 354 356 358 356 355 353 349 346 344 343 341 336 333 333 330 324 317 311 306 299 286 261 223 177 149 135 124 114 105
64 85 91 331 291 260 254 212 75 20 334 326 332 340 349 351 349 352 354 355 355 355 354 353 353 350 347 344 343 343 342 338 338 342 342 338 331 323 318 315 300 272 237 181 150 142 134 126 112
Height
1523 1522 1521 1521 1523 1533 1532 1525 1516 1509 1505 1504 1503 1503 1508 1512 1516 1523 1518 1517 1518 1519 1518 1518 1518 1518 1518 1518 1518 1518 1518 1519 1519 1519 1520 1520 1521 1521 1522 1522 1522 1523 1523 1523 1524 1525 1526 1526 1527
1522 1521 1522 1521 1530 1541 1532 1520 1514 1507 1505 1504 1504 1506 1508 1511 1513 1515 1516 1517 1518 1519 1519 1519 1519 1519 1519 1519 1519 1518 1518 1518 1519 1519 1519 1519 1520 1520 1521 1521 1521 1521 1522 1522 1523 1523 1524 1525 1525
1522 1521 1522 1524 1531 1536 1527 1517 1512 1509 1506 1505 1506 1509 1512 1515 1515 1516 1517 1517 1518 1519 1519 1520 1520 1520 1520 1520 1519 1518 1518 1518 1518 1518 1518 1518 1519 1519 1520 1520 1520 1521 1521 1521 1521 1522 1523 1524 1524
1522 1522 1522 1529 1530 1528 1521 1516 1511 1509 1508 1508 1509 1512 1515 1518 1518 1518 1518 1518 1519 1519 1520 1520 1521 1520 1520 1520 1519 1518 1518 1517 1517 1517 1517 1517 1517 1518 1518 1519 1519 1519 1519 1520 1520 1521 1521 1522 1523
1522 1523 1529 1536 1533 1525 1521 1516 1512 1513 1513 1513 1512 1515 1518 1519 1519 1519 1520 1520 1520 1520 1520 1520 1520 1520 1520 1519 1519 1519 1518 1517 1516 1516 1516 1516 1516 1516 1517 1517 1518 1518 1518 1518 1518 1519 1519 1520 1521
1524 1525 1539 1541 1535 1526 1521 1518 1514 1516 1516 1515 1516 1517 1520 1522 1522 1522 1521 1521 1521 1520 1520 1520 1520 1520 1519 1519 1518 1518 1517 1517 1516 1515 1515 1514 1514 1514 1514 1515 1516 1516 1516 1516 1516 1517 1517 1518 1519
1526 1531 1538 1537 1536 1530 1525 1521 1519 1519 1519 1519 1519 1520 1524 1525 1525 1524 1523 1522 1522 1522 1521 1521 1520 1519 1519 1518 1517 1517 1516 1515 1515 1514 1513 1513 1513 1513 1513 1513 1513 1514 1514 1514 1514 1515 1515 1516 1517
1527 1532 1536 1538 1535 1533 1527 1523 1522 1522 1525 1523 1522 1526 1529 1528 1526 1525 1524 1524 1523 1523 1522 1521 1520 1519 1518 1517 1516 1516 1515 1514 1513 1512 1512 1511 1511 1511 1511 1511 1511 1511 1512 1512 1512 1512 1513 1513 1514
1528 1537 1541 1535 1533 1532 1527 1525 1525 1527 1528 1529 1531 1533 1534 1528 1525 1524 1524 1524 1524 1524 1523 1522 1520 1518 1517 1515 1515 1514 1513 1512 1511 1510 1510 1510 1509 1509 1509 1509 1509 1509 1509 1509 1509 1509 1510 1510 1511
1529 1540 1535 1531 1529 1529 1528 1527 1528 1530 1532 1535 1535 1535 1532 1527 1525 1524 1524 1524 1525 1525 1524 1523 1521 1519 1516 1514 1514 1513 1512 1511 1510 1509 1508 1508 1507 1507 1507 1507 1507 1507 1507 1507 1506 1506 1506 1506 1507
1529 1533 1530 1529 1528 1527 1528 1530 1530 1531 1542 1544 1541 1537 1532 1528 1527 1527 1527 1526 1526 1525 1524 1522 1520 1518 1515 1514 1513 1512 1510 1509 1508 1507 1506 1506 1505 1505 1504 1504 1505 1504 1504 1504 1503 1503 1502 1502 1502
1529 1528 1528 1528 1527 1527 1529 1533 1537 1537 1548 1548 1543 1537 1532 1530 1531 1531 1530 1529 1527 1525 1524 1521 1519 1517 1515 1514 1512 1511 1510 1508 1507 1506 1504 1504 1503 1502 1502 1501 1501 1501 1500 1500 1500 1499 1499 1498 1498
1528 1528 1527 1527 1527 1528 1530 1534 1540 1548 1551 1548 1542 1536 1535 1536 1536 1536 1534 1531 1528 1526 1524 1521 1519 1516 1515 1513 1511 1510 1508 1507 1506 1505 1503 1502 1501 1500 1499 1498 1498 1497 1497 1496 1496 1495 1494 1494 1494
1528 1527 1526 1527 1529 1532 1534 1541 1544 1555 1553 1547 1541 1540 1540 1540 1539 1536 1534 1532 1530 1528 1525 1522 1519 1517 1514 1512 1510 1508 1506 1505 1504 1503 1502 1501 1499 1498 1496 1495 1494 1493 1493 1492 1492 1491 1490 1490 1489
1528 1528 1527 1527 1529 1534 1535 1548 1553 1557 1551 1546 1546 1546 1544 1543 1541 1539 1538 1536 1533 1530 1526 1522 1519 1517 1514 1511 1509 1507 1505 1503 1501 1500 1499 1498 1496 1495 1493 1491 1490 1489 1488 1487 1487 1486 1485 1485 1484
1529 1534 1537 1532 1530 1533 1540 1559 1559 1558 1550 1550 1550 1550 1548 1547 1545 1543 1541 1538 1534 1530 1526 1523 1520 1516 1513 1510 1507 1505 1503 1501 1499 1497 1495 1493 1492 1490 1488 1487 1486 1485 1484 1482 1481 1480 1480 1479 1479
1543 1546 1542 1537 1533 1534 1543 1558 1561 1560 1554 1554 1555 1554 1552 1551 1548 1546 1543 1539 1536 1531 1527 1523 1519 1515 1511 1507 1504 1502 1500 1497 1495 1493 1491 1489 1486 1485 1483 1482 1480 1479 1478 1477 1476 1475 1475 1474 1473
1551 1548 1546 1543 1539 1540 1550 1560 1563 1562 1559 1559 1559 1557 1556 1553 1552 1549 1546 1541 1537 1533 1528 1523 1518 1514 1509 1504 1500 1497 1495 1492 1490 1488 1485 1483 1481 1479 1477 1476 1475 1473 1472 1470 1470 1469 1469 1468 1468
1545 1546 1548 1543 1542 1545 1555 1563 1566 1565 1562 1562 1562 1561 1559 1557 1555 1551 1547 1542 1537 1532 1527 1522 1517 1512 1507 1502 1496 1492 1489 1487 1484 1482 1479 1477 1475 1472 1469 1468 1468 1467 1466 1464 1464 1463 1463 1463 1463
1547 1549 1550 1547 1544 1550 1562 1567 1569 1568 1567 1567 1566 1564 1562 1559 1555 1551 1547 1542 1538 1533 1528 1522 1517 1512 1507 1502 1496 1492 1488 1485 1481 1477 1473 1471 1467 1465 1462 1460 1459 1459 1459 1458 1457 1457 1457 1457 1458
1551 1551 1551 1551 1548 1551 1563 1571 1571 1572 1571 1570 1568 1567 1564 1562 1557 1553 1548 1543 1538 1533 1528 1522 1516 1511 1505 1499 1493 1488 1483 1478 1474 1469 1466 1463 1460 1457 1455 1453 1451 1450 1451 1450 1450 1450 1450 1451 1452
1555 1547 1547 1548 1553 1557 1555 1571 1573 1574 1575 1573 1571 1569 1566 1563 1559 1554 1549 1543 1538 1532 1527 1520 1513 1507 1502 1496 1491 1485 1480 1474 1469 1466 1461 1458 1454 1450 1447 1445 1443 1442 1443 1443 1443 1443 1444 1445 1446
1551 1545 1545 1545 1551 1555 1553 1566 1579 1574 1577 1577 1574 1571 1567 1564 1559 1554 1548 1543 1537 1530 1523 1516 1509 1504 1498 1493 1488 1483 1477 1472 1466 1461 1456 1451 1447 1443 1440 1437 1435 1434 1435 1436 1436 1436 1437 1438 1440
1551 1548 1545 1550 1554 1557 1550 1563 1583 1579 1579 1577 1574 1571 1568 1563 1558 1553 1548 1541 1535 1528 1520 1513 1506 1500 1495 1489 1484 1478 1472 1466 1460 1455 1449 1444 1439 1436 1432 1430 1428 1427 1427 1428 1429 1429 1430 1432 1434
1558 1562 1565 1563 1566 1560 1559 1572 1583 1580 1579 1577 1575 1572 1568 1563 1557 1551 1545 1538 1531 1524 1517 1510 1503 1497 1490 1484 1479 1473 1468 1461 1455 1450 1443 1437 1431 1427 1424 1422 1420 1419 1419 1420 1422 1423 1424 1425 1427
1566 1569 1579 1581 1577 1569 1563 1579 1585 1581 1580 1578 1576 1573 1568 1562 1556 1550 1543 1536 1529 1522 1514 1507 1500 1493 1486 1479 1474 1469 1463 1457 1451 1445 1439 1432 1426 1420 1417 1414 1413 1412 1411 1413 1415 1417 1418 1420 1422
1567 1571 1571 1579 1578 1577 1569 1579 1584 1580 1579 1577 1574 1570 1566 1560 1554 1547 1541 1534 1527 1520 1513 1506 1498 1490 1483 1477 1470 1465 1459 1453 1447 1440 1434 1427 1420 1414 1409 1407 1405 1405 1406 1407 1409 1411 1413 1415 1417
1566 1568 1577 1577 1577 1574 1568 1578 1586 1583 1581 1577 1573 1568 1563 1556 1550 1543 1537 1530 1524 1518 1511 1504 1496 1489 1482 1475 1469 1463 1457 1451 1445 1438 1431 1423 1416 1409 1403 1400 1398 1398 1399 1401 1403 1405 1408 1410 1412
1569 1572 1576 1580 1581 1585 1582 1587 1584 1583 1581 1578 1573 1568 1562 1555 1548 1542 1535 1529 1522 1516 1508 1501 1494 1487 1480 1474 1468 1461 1455 1449 1444 1437 1429 1420 1412 1405 1399 1395 1393 1393 1394 1396 1397 1400 1403 1406 1408
1571 1575 1580 1587 1587 1587 1592 1592 1584 1583 1580 1577 1572 1566 1560 1555 1549 1542 1534 1527 1520 1513 1506 1499 1493 1486 1480 1474 1467 1461 1454 1449 1442 1435 1427 1418 1410 1402 1396 1391 1389 1388 1390 1391 1392 1394 1398 1401 1404